• In Belgien
  • Länderverzeichnis
  • Für 7 Tage
  • Wassertemperatur
  • Satellitenkarten
  • Wetterkarte
  • Widgets
  • user-avatar
    Anmelden

    Stündliche Wetter Hobart

    Heute, 23 April, Montag

    Zeit Temperatur Niederschläge Wind Luftdruck Luftfeuchtigkeit
    00:00 +12°C° 0 mm 1 m/S 751 mmHg 97%
    01:00 +12°C° 0 mm 1 m/S 751 mmHg 97%
    02:00 +11°C° 0 mm 1 m/S 751 mmHg 97%
    03:00 +11°C° 0 mm 1 m/S 751 mmHg 97%
    04:00 +10°C° 0 mm 1 m/S 750 mmHg 98%
    05:00 +10°C° 0 mm 1 m/S 750 mmHg 98%
    06:00 +10°C° 0 mm 1 m/S 751 mmHg 97%
    07:00 +8°C° 0 mm 2 m/S 751 mmHg 97%
    08:00 +12°C° 0 mm 1 m/S 751 mmHg 83%
    09:00 +15°C° 0 mm 1 m/S 751 mmHg 70%
    10:00 +18°C° 0 mm 1 m/S 751 mmHg 56%
    11:00 +20°C° 0 mm 1 m/S 751 mmHg 50%
    12:00 +22°C° 0 mm 1 m/S 750 mmHg 43%
    13:00 +22°C° 0 mm 0 m/S 750 mmHg 37%
    14:00 +23°C° 0 mm 1 m/S 750 mmHg 39%
    15:00 +22°C° 0 mm 1 m/S 750 mmHg 41%
    16:00 +21°C° 0 mm 2 m/S 750 mmHg 43%
    17:00 +18°C° 0 mm 2 m/S 750 mmHg 54%
    18:00 +16°C° 0 mm 2 m/S 750 mmHg 66%
    19:00 +13°C° 0 mm 2 m/S 750 mmHg 77%
    20:00 +12°C° 0 mm 2 m/S 750 mmHg 82%
    21:00 +12°C° 0 mm 2 m/S 750 mmHg 87%
    22:00 +10°C° 0 mm 2 m/S 750 mmHg 92%
    23:00 +10°C° 0 mm 2 m/S 750 mmHg 92%

    Morgen, 24 April, Dienstag

    Zeit Temperatur Niederschläge Wind Luftdruck Luftfeuchtigkeit
    00:00 +10°C° 0 mm 3 m/S 749 mmHg 93%
    01:00 +10°C° 0 mm 3 m/S 749 mmHg 93%
    02:00 +10°C° 0 mm 3 m/S 748 mmHg 92%
    03:00 +10°C° 0 mm 4 m/S 748 mmHg 91%
    04:00 +10°C° 0 mm 4 m/S 747 mmHg 90%
    05:00 +11°C° 0 mm 3 m/S 747 mmHg 85%
    06:00 +11°C° 0 mm 3 m/S 747 mmHg 80%
    07:00 +12°C° 0 mm 3 m/S 746 mmHg 75%
    08:00 +13°C° 0,1 mm 3 m/S 746 mmHg 71%
    09:00 +16°C° 0,1 mm 3 m/S 746 mmHg 67%
    10:00 +18°C° 0,1 mm 4 m/S 746 mmHg 63%
    11:00 +20°C° 0 mm 3 m/S 745 mmHg 58%
    12:00 +22°C° 0 mm 3 m/S 744 mmHg 52%
    13:00 +25°C° 0 mm 3 m/S 744 mmHg 47%
    14:00 +25°C° 0 mm 3 m/S 744 mmHg 50%
    15:00 +24°C° 0 mm 3 m/S 743 mmHg 53%
    16:00 +22°C° 0 mm 3 m/S 743 mmHg 56%
    17:00 +20°C° 0,2 mm 3 m/S 744 mmHg 66%
    18:00 +18°C° 0,2 mm 3 m/S 744 mmHg 75%
    19:00 +16°C° 0,2 mm 3 m/S 744 mmHg 85%
    20:00 +14°C° 0 mm 3 m/S 745 mmHg 86%
    21:00 +13°C° 0 mm 3 m/S 745 mmHg 87%
    22:00 +13°C° 0 mm 3 m/S 745 mmHg 89%
    23:00 +13°C° 0 mm 2 m/S 746 mmHg 89%

    übermorgen, 25 April, Mittwoch

    Zeit Temperatur Niederschläge Wind Luftdruck Luftfeuchtigkeit
    00:00 +13°C° 0 mm 2 m/S 746 mmHg 90%
    01:00 +13°C° 0 mm 2 m/S 746 mmHg 91%
    02:00 +13°C° 0 mm 2 m/S 746 mmHg 91%
    03:00 +13°C° 0 mm 2 m/S 746 mmHg 91%
    04:00 +13°C° 0 mm 2 m/S 746 mmHg 90%
    05:00 +12°C° 0 mm 2 m/S 746 mmHg 90%
    06:00 +12°C° 0 mm 2 m/S 747 mmHg 89%
    07:00 +12°C° 0 mm 2 m/S 747 mmHg 89%
    08:00 +14°C° 0 mm 1 m/S 747 mmHg 80%
    09:00 +15°C° 0 mm 1 m/S 747 mmHg 71%
    10:00 +18°C° 0 mm 1 m/S 747 mmHg 62%
    11:00 +19°C° 0 mm 1 m/S 747 mmHg 57%
    12:00 +20°C° 0 mm 1 m/S 746 mmHg 52%
    13:00 +21°C° 0 mm 1 m/S 745 mmHg 47%
    14:00 +20°C° 0 mm 2 m/S 745 mmHg 49%
    15:00 +19°C° 0 mm 2 m/S 745 mmHg 51%
    16:00 +19°C° 0 mm 3 m/S 744 mmHg 53%
    17:00 +17°C° 0 mm 2 m/S 744 mmHg 62%
    18:00 +15°C° 0 mm 2 m/S 744 mmHg 70%
    19:00 +13°C° 0 mm 2 m/S 744 mmHg 79%
    20:00 +13°C° 0 mm 2 m/S 744 mmHg 82%
    21:00 +12°C° 0 mm 2 m/S 744 mmHg 85%
    22:00 +10°C° 0 mm 3 m/S 743 mmHg 89%
    23:00 +10°C° 0 mm 3 m/S 743 mmHg 87%

    26 April, Donnerstag

    Zeit Temperatur Niederschläge Wind Luftdruck Luftfeuchtigkeit
    00:00 +11°C° 0 mm 4 m/S 743 mmHg 86%
    01:00 +11°C° 0 mm 4 m/S 743 mmHg 84%
    02:00 +9°C° 0,4 mm 5 m/S 743 mmHg 85%
    03:00 +8°C° 0,4 mm 5 m/S 743 mmHg 85%
    04:00 +8°C° 0,4 mm 6 m/S 744 mmHg 85%
    05:00 +7°C° 0 mm 6 m/S 744 mmHg 86%
    06:00 +7°C° 0 mm 6 m/S 745 mmHg 86%
    07:00 +5°C° 0 mm 6 m/S 745 mmHg 87%
    08:00 +8°C° 0 mm 6 m/S 746 mmHg 78%
    09:00 +9°C° 0 mm 7 m/S 746 mmHg 68%
    10:00 +11°C° 0 mm 7 m/S 746 mmHg 59%
    11:00 +11°C° 0 mm 8 m/S 746 mmHg 56%
    12:00 +12°C° 0 mm 8 m/S 746 mmHg 54%
    13:00 +13°C° 0 mm 8 m/S 746 mmHg 51%
    14:00 +12°C° 0 mm 8 m/S 746 mmHg 57%
    15:00 +11°C° 0 mm 8 m/S 746 mmHg 64%
    16:00 +11°C° 0 mm 8 m/S 746 mmHg 70%
    17:00 +10°C° 0,1 mm 7 m/S 747 mmHg 73%
    18:00 +10°C° 0,1 mm 7 m/S 748 mmHg 75%
    19:00 +10°C° 0,1 mm 6 m/S 749 mmHg 77%
    20:00 +10°C° 0,1 mm 6 m/S 749 mmHg 79%
    21:00 +10°C° 0,1 mm 5 m/S 750 mmHg 80%
    22:00 +10°C° 0,1 mm 5 m/S 751 mmHg 82%
    23:00 +10°C° 0,1 mm 5 m/S 751 mmHg 84%

    27 April, Freitag

    Zeit Temperatur Niederschläge Wind Luftdruck Luftfeuchtigkeit
    00:00 +10°C° 0,1 mm 5 m/S 751 mmHg 85%
    01:00 +10°C° 0,1 mm 4 m/S 751 mmHg 87%
    02:00 +10°C° 0,1 mm 4 m/S 751 mmHg 88%
    03:00 +11°C° 0,1 mm 4 m/S 752 mmHg 89%
    04:00 +11°C° 0,1 mm 4 m/S 752 mmHg 90%
    05:00 +11°C° 0,1 mm 3 m/S 752 mmHg 90%
    06:00 +11°C° 0,1 mm 3 m/S 753 mmHg 90%
    07:00 +11°C° 0,1 mm 3 m/S 754 mmHg 91%
    08:00 +11°C° 0,1 mm 3 m/S 754 mmHg 87%
    09:00 +12°C° 0,1 mm 3 m/S 755 mmHg 83%
    10:00 +13°C° 0,1 mm 3 m/S 755 mmHg 79%
    11:00 +13°C° 0,1 mm 3 m/S 755 mmHg 77%
    12:00 +14°C° 0,1 mm 3 m/S 755 mmHg 75%
    13:00 +14°C° 0,1 mm 3 m/S 755 mmHg 73%
    14:00 +14°C° 0 mm 3 m/S 755 mmHg 72%
    15:00 +14°C° 0 mm 3 m/S 755 mmHg 71%
    16:00 +14°C° 0 mm 3 m/S 755 mmHg 70%
    17:00 +12°C° 0 mm 3 m/S 756 mmHg 78%
    18:00 +10°C° 0 mm 2 m/S 756 mmHg 86%
    19:00 +9°C° 0 mm 2 m/S 757 mmHg 94%
    20:00 +8°C° 0 mm 2 m/S 757 mmHg 95%
    21:00 +8°C° 0 mm 2 m/S 757 mmHg 96%
    22:00 +9°C° 0 mm 1 m/S 758 mmHg 97%
    23:00 +8°C° 0 mm 1 m/S 758 mmHg 97%

    28 April, Samstag

    Zeit Temperatur Niederschläge Wind Luftdruck Luftfeuchtigkeit
    00:00 +8°C° 0 mm 1 m/S 758 mmHg 97%
    01:00 +8°C° 0 mm 1 m/S 758 mmHg 97%
    02:00 +8°C° 0 mm 1 m/S 757 mmHg 97%
    03:00 +7°C° 0 mm 1 m/S 757 mmHg 97%
    04:00 +7°C° 0 mm 1 m/S 757 mmHg 96%
    05:00 +7°C° 0 mm 1 m/S 757 mmHg 96%
    06:00 +7°C° 0 mm 1 m/S 757 mmHg 96%
    07:00 +7°C° 0 mm 1 m/S 758 mmHg 96%
    08:00 +10°C° 0 mm 1 m/S 758 mmHg 86%
    09:00 +12°C° 0 mm 1 m/S 758 mmHg 76%
    10:00 +15°C° 0 mm 1 m/S 758 mmHg 66%
    11:00 +16°C° 0 mm 1 m/S 758 mmHg 59%
    12:00 +19°C° 0 mm 1 m/S 757 mmHg 53%
    13:00 +21°C° 0 mm 1 m/S 757 mmHg 46%
    14:00 +20°C° 0 mm 1 m/S 757 mmHg 49%
    15:00 +18°C° 0 mm 2 m/S 757 mmHg 52%
    16:00 +18°C° 0 mm 2 m/S 757 mmHg 55%
    17:00 +15°C° 0 mm 1 m/S 757 mmHg 68%
    18:00 +13°C° 0 mm 1 m/S 758 mmHg 81%
    19:00 +10°C° 0 mm 1 m/S 758 mmHg 94%
    20:00 +10°C° 0 mm 1 m/S 758 mmHg 95%
    21:00 +9°C° 0 mm 0 m/S 758 mmHg 96%
    22:00 +8°C° 0 mm 0 m/S 758 mmHg 97%
    23:00 +8°C° 0 mm 0 m/S 758 mmHg 97%
    Mehr zeigen